STARLINK-11442, 62885

Orbit data source: Space-Track

STARLINK-11442, 62885 is a payload satellite owned by SpaceX/Seattle (US) in LEO that was launched on Tue, 04 Feb 2025 UTC via an FALCON 9 launch vehicle from the Air Force Eastern Test Range (AFETR). Payload-class satellites include a variety of spacecraft equipped with specific instruments for various scientific and technological missions. These include communications satellites like Starlink; space stations such as the ISS; scientific satellites like the Hubble; Earth observation satellites from companies like Planet Labs, Umbra, and HawkEye 360; GPS; miniature CubeSats for education and research; and military/defense satellites.

Loading next visibility...
Identifier
62885, 2025-024G
Orbit
LEO
Country
Flag of USUS
Related business
Manufacturer
SpaceX/Seattle
Mission
Operational Commercial Communications
Bus & Motor
STARLINK V2MD, Unknown motor
Mass
960 kg wet, ~910 kg dry
Launch date (UTC)
2025-02-04 (1 year ago)
Launch vehicle
FALCON 9
Launch site
Air Force Eastern Test Range (AFETR)
Object type
Payload
Rocket body
Debris
Shape & HBR
Box + 2 Pan, 18.1 m
Radar Cross Section
36.964 m², Large (>1 m²)

Expand to show TLE details & history
Last TLE update: 9 hours ago

TLE from 9 hours ago
0 STARLINK-11442
1 62885U 25024G   26130.12894664  .00180982  00000-0  13809-2 0  9995
2 62885  43.0001 170.7397 0001608 255.5108 104.5581 15.70883071 73132
Epoch: 2026-05-10T03:05Z
TLE epoch observation values (Epoch: 2026-05-10T03:05:40.989Z)
Latitude
-0.00005°
Longitude
-103.6176°
Altitude
356.415 km
Speed
7.697 km/s
True Right ascension
11h 22m 57s
True Declination
0° 00' 00"
Sunlit
Object was in full shadow at epoch
Visualization orbit readout
Latitude
Unknown
Longitude
Unknown
Altitude
Unknown
Speed
Unknown
Apparent Right ascension
Unknown
Apparent Declination
Unknown
Sunlit
N/A
Visualization observer readout
Local Sidereal Time
20:25:15
Azimuth
Unknown
Elevation
Unknown
Doppler factor
Unknown
Orbital elements
Apogee altitude
359.437 km
Perigee altitude
357.27 km
Semi-major axis
6,736.491 km
Eccentricity
0.00016
Inclination
43.0001°
RAAN
170.7397°
Arg. of periapsis
255.5108°
True anomaly
104.57593°
Mean anomaly
104.5581°
Eccentric anomaly
104.56702°
Mean motion
3.92548 °/min
Orbital period
91.71 mins
BSTAR
0.0013809
Loading maneuver chart data...
Computing Atmospheric mass density...
Loading historical data...
Loading historical data...
Loading historical data...
Loading historical data...
Loading historical data...
Loading historical data...
Loading historical data...

Documentation

Showing up to 5 results
|